MET'MAP v2.0
soon released !

Expected late october,
this new version will be
more efficient, smarter,
and hosted on a brand new
server x3 powerfull...
...and still free !


Not compatible ?
Try the mobile version !

LOG IN : | Subscribe | Disclaimer | Who is Orbifly ? |
ICAO code :

TAF - LFMY Salon de Provence - 06 Aug 2020 12:02 UTC
Data Sources :     NOAA   


- Airport Elevation : 195 ft
- No reported NOTAMs.


LFMY - Salon de Provence

Latest METAR recorded : 2020/08/06 09:30 LFMY 060930Z AUTO VRB03KT 9999 // NSC 28/12 Q1016
NO TAF


MET'MAP, your aeronautical weather chart ! - Copyright ORBIFLY December 2007

Programming & Development : Alexandra Zaïnal
Co-Developer : Marc-Olivier Méhu
Technical & hardware support : Manuel Goepfert
Concept & Financing : Baudouin d'Aumeries